Temperature
17 14 14 14 14 15 16 16 15 16 17 16 16 15 15 16 16 15 16 16 17 17 18 18 18 19 19 19 19 19 18 18 18 18 18 18 18 17 17 17 17 17 17 17
15 15 16 16 15 15 15 15 15 15 16 17 15 15 15 15 14 15 15 15 15 16 17 17 17 18 18 19 19 18 18 17 17 17 17 17 17 17 17 17 17 17 17 17
16 16 17 17 17 16 15 15 15 15 16 16 16 15 15 15 14 14 14 14 14 15 15 15 16 17 17 17 18 17 17 17 17 17 17 16 16 16 16 16 15 16 16 16
15 16 17 17 17 17 16 16 16 16 15 14 16 14 15 15 14 14 13 13 13 13 14 14 15 15 16 16 16 17 17 17 17 17 16 16 16 15 15 15 15 15 15 15
16 17 17 17 17 17 17 17 17 17 15 15 15 14 14 15 14 14 13 12 12 12 13 13 13 14 14 15 15 16 16 16 16 16 16 15 15 15 15 14 14 14 14 14
16 17 17 17 18 18 18 17 16 14 13 14 15 14 14 14 14 13 12 12 12 12 12 12 13 13 13 14 15 15 15 15 15 15 15 15 15 14 14 14 13 13 13 13
16 17 17 18 18 17 17 15 14 14 13 14 15 14 14 14 14 13 12 11 11 11 11 12 12 12 12 13 14 14 14 15 14 14 14 14 14 14 13 13 13 13 12 12
15 15 17 17 17 17 16 15 14 15 14 14 15 14 14 13 12 12 11 11 10 10 11 11 11 11 12 12 12 13 13 13 13 13 13 13 13 13 13 12 12 11 11 11
15 15 17 17 17 17 16 14 14 13 14 13 14 14 13 13 12 11 10 10 10 10 10 10 10 10 11 11 11 11 12 12 12 12 12 12 12 12 12 11 11 11 10 10
15 15 16 16 16 16 15 14 12 13 13 14 14 14 13 13 12 11 10 9 9 9 9 9 9 9 10 10 10 11 11 11 11 11 11 11 10 10 10 10 10 9 9 9
15 14 15 15 16 15 15 14 13 11 12 13 13 13 14 13 12 11 10 9 8 8 8 9 9 9 9 9 9 9 10 10 10 10 10 10 9 9 9 9 8 8 8 8
13 12 13 14 15 15 15 14 13 13 13 12 13 13 12 12 11 10 9 8 8 8 8 8 8 8 8 8 8 9 9 9 9 9 9 8 8 8 8 8 7 7 7 7
13 12 13 14 14 14 15 14 13 12 12 12 12 13 11 11 10 9 9 8 8 7 7 7 7 8 8 8 8 8 8 8 8 8 8 7 7 7 7 7 6 6 6 6
13 12 13 14 14 13 14 14 14 12 12 12 13 12 11 11 10 9 8 8 7 7 7 7 7 7 7 7 7 7 7 7 7 7 7 6 6 6 6 6 6 5 5 5
13 13 13 13 14 14 14 14 14 13 13 13 13 12 12 11 10 9 8 7 7 7 7 7 6 6 6 6 6 6 6 6 6 6 6 6 5 5 5 5 5 5 5 5
12 13 14 14 14 14 14 14 14 13 13 12 12 11 11 10 9 8 8 7 7 7 6 6 6 6 6 6 6 6 6 6 6 6 5 5 5 5 5 5 5 5 5 5
11 12 13 13 14 15 14 13 13 12 12 12 12 11 10 10 9 8 8 7 7 6 6 6 6 6 6 6 6 6 5 5 5 5 5 5 5 5 4 4 4 4 4 4
11 11 10 12 14 14 13 13 13 12 11 11 11 10 10 9 8 8 8 7 7 6 6 6 6 6 6 5 5 5 5 5 5 5 5 5 5 5 5 4 4 4 4 4
11 11 11 11 13 13 13 13 12 12 11 11 10 10 9 8 8 8 8 7 7 7 7 6 6 6 6 5 5 5 5 5 5 5 5 5 5 5 5 4 4 4 4 4
11 11 11 11 13 13 13 13 13 12 11 11 10 10 9 9 9 8 7 7 7 7 6 6 6 6 6 5 5 5 5 5 5 5 5 5 5 5 5 4 4 4 4 4
13 12 11 11 12 12 13 13 13 13 11 10 10 9 9 9 8 8 7 7 7 7 6 6 6 6 6 6 6 5 5 5 5 5 5 5 5 5 5 5 4 4 4 4
12 12 11 10 12 12 12 12 12 11 10 10 9 9 9 8 8 7 7 7 6 6 6 6 6 6 6 6 6 5 5 5 5 5 5 5 5 5 5 5 5 4 4 4
11 11 10 10 10 10 10 11 11 11 10 9 9 9 9 8 7 7 7 7 6 6 6 6 6 6 5 5 5 5 5 5 5 5 5 5 5 5 5 5 4 4 4 4
11 9 9 10 10 10 10 11 11 11 11 10 10 9 9 8 7 7 7 6 6 6 6 6 6 6 5 5 5 5 5 5 5 5 5 5 5 5 5 5 4 4 4 4
11 10 9 10 10 10 10 10 11 11 11 10 9 9 9 8 7 7 7 6 6 6 6 6 6 6 5 5 5 5 5 5 5 5 5 5 5 5 5 5 4 4 4 4
10 10 10 10 10 9 10 10 11 11 10 10 9 8 8 8 8 7 7 7 6 6 6 6 6 6 5 5 5 5 5 5 5 5 5 5 5 5 5 5 4 4 4 4
Wind_Speed
3 3 4 8 8 7 5 5 9 10 6 1 2 2 5 5 3 2 2 1 1 0 2 2 2 4 5 6 7 7 7 6 6 6 5 5 4 4 4 4 5 5 6 6
4 5 10 7 5 6 6 6 8 8 3 3 2 1 2 5 3 3 3 3 3 4 6 6 4 5 5 6 7 7 7 7 6 5 3 3 4 4 4 5 8 8 8 8
8 8 3 3 4 5 6 7 7 6 3 2 3 2 2 3 5 7 7 6 7 7 7 7 7 6 6 6 5 6 7 7 7 7 7 6 5 4 4 6 6 8 11 11
7 7 3 4 6 6 7 8 8 5 1 3 2 2 1 3 5 7 8 9 9 9 9 8 8 9 8 7 6 6 6 6 7 8 9 7 6 6 5 6 6 8 11 12
7 4 4 6 7 6 8 5 4 4 4 1 1 3 3 3 3 5 7 8 8 9 9 10 9 9 9 8 7 6 8 8 7 7 9 9 8 8 9 9 9 9 10 13
8 5 5 7 5 4 4 3 4 5 4 0 3 3 2 2 3 5 7 8 9 9 10 10 10 10 10 10 9 8 9 9 9 9 9 10 12 11 12 11 10 8 8 9
7 6 4 3 2 1 3 5 4 4 3 3 2 3 2 1 5 8 9 9 9 9 10 11 11 11 11 11 10 9 10 11 10 11 11 11 12 12 12 11 11 10 8 9
3 8 5 2 4 4 3 7 6 4 4 3 1 3 1 5 8 9 10 10 10 10 10 11 11 11 10 11 12 11 11 12 12 13 13 12 12 10 10 12 11 11 9 9
6 7 5 3 3 4 3 3 5 6 2 1 1 2 2 5 7 8 9 10 10 10 10 10 11 11 11 12 13 12 12 13 14 14 15 15 14 14 14 14 13 11 10 10
7 5 6 4 2 1 4 6 5 5 5 3 2 4 4 8 8 8 8 9 9 9 10 11 11 11 11 11 12 14 15 15 15 15 14 14 15 15 15 14 15 13 12 12
5 4 6 4 0 2 1 3 4 4 4 5 3 4 2 7 10 12 10 10 10 10 10 10 10 11 11 12 13 14 14 15 15 15 15 16 15 15 15 14 14 13 12 11
4 4 3 5 4 2 2 4 6 4 4 4 4 2 3 5 9 12 13 12 11 11 10 10 11 11 12 13 13 14 14 15 14 14 16 16 15 15 15 14 12 12 12 11
6 5 2 7 5 4 2 0 3 4 4 5 5 3 3 9 11 11 12 12 12 11 11 11 11 11 12 12 13 13 14 14 13 14 15 15 14 14 14 12 11 10 11 11
6 4 5 5 5 3 3 2 2 4 4 4 5 7 7 10 12 12 12 12 12 11 11 11 11 11 11 11 11 12 13 12 13 13 14 14 12 12 11 11 10 10 10 10
5 3 2 4 3 2 2 2 0 2 3 5 5 8 10 11 12 13 12 13 13 12 12 11 11 10 10 11 11 11 11 11 12 13 13 12 10 10 10 10 9 8 8 9
4 4 1 2 2 0 2 4 3 2 2 4 8 4 7 11 11 12 12 13 13 12 12 12 11 11 10 10 10 11 10 10 10 12 11 10 10 10 9 8 8 8 8 7
4 5 3 1 3 3 3 4 2 3 3 3 3 5 13 13 13 13 13 12 13 13 13 12 11 10 10 9 9 10 9 9 10 10 9 9 8 8 7 7 7 7 6 6
7 5 3 1 1 2 4 1 4 6 4 3 5 10 12 12 11 9 10 12 13 13 13 12 11 10 9 8 8 8 9 9 9 8 8 7 7 7 6 6 6 5 4 4
5 7 4 3 1 3 2 1 3 4 2 3 9 12 12 14 11 7 8 10 11 11 11 10 10 10 9 9 8 8 8 8 8 7 6 6 6 6 5 5 4 3 3 3
5 5 5 4 3 4 4 1 4 5 1 4 9 13 14 10 6 6 10 12 13 12 11 10 10 10 9 8 8 8 8 7 7 6 5 5 5 5 5 4 3 2 3 3
3 4 4 3 3 4 2 1 3 1 4 7 9 11 9 4 5 11 14 12 13 12 11 11 10 9 8 8 8 8 7 6 5 5 5 4 4 4 4 3 2 3 3 4
5 4 3 4 2 4 2 3 3 4 4 8 9 9 9 11 14 15 15 14 14 13 11 10 10 8 7 8 9 8 6 5 5 5 5 4 4 3 4 4 4 4 4 4
3 5 5 5 4 3 2 0 1 5 8 7 8 11 14 15 15 15 14 14 12 12 11 9 10 9 7 6 8 8 5 5 6 6 5 4 5 4 4 4 4 4 3 3
2 3 4 3 2 2 3 4 4 6 7 10 13 14 14 15 16 15 14 12 11 10 10 9 10 9 7 6 6 6 5 6 6 5 4 4 4 4 4 4 3 3 3 2
6 5 4 3 2 4 5 5 7 10 13 14 13 12 14 17 16 14 13 12 11 10 8 8 9 9 8 6 5 5 5 6 6 5 4 4 3 4 4 4 3 2 1 1
5 7 7 7 8 7 5 5 8 12 12 15 15 12 12 14 15 13 12 10 10 10 8 8 8 7 7 6 5 4 5 6 6 4 3 3 2 2 3 3 2 3 1 2
Wind_Direction
65 74 250 238 208 212 228 248 269 272 267 277 259 289 326 356 51 59 23 30 73 340 10 55 116 125 132 140 147 156 157 161 155 159 164 165 159 140 120 98 92 101 111 117
24 274 243 234 214 205 221 253 267 285 288 185 181 67 16 28 45 65 57 45 49 44 36 43 69 95 111 124 135 145 152 154 155 160 147 120 119 107 100 87 75 74 80 85
212 244 247 225 249 227 237 218 239 247 327 79 126 28 58 55 61 64 60 57 49 51 52 53 59 68 79 85 100 131 134 139 137 125 109 103 98 92 91 85 76 66 73 76
237 259 247 257 265 211 263 234 221 227 225 266 177 222 236 109 72 65 59 54 49 49 52 54 56 57 59 62 74 100 114 116 119 118 117 125 133 126 107 97 91 76 69 73
247 237 238 256 252 201 233 253 217 204 178 179 349 153 254 142 110 95 78 67 57 53 54 51 50 54 54 53 60 81 97 97 102 111 119 123 120 117 110 99 88 77 67 67
250 253 222 232 251 220 233 44 52 57 85 78 258 158 245 210 167 129 98 77 64 60 59 55 49 50 49 48 53 64 88 87 92 103 110 120 124 124 117 111 102 88 78 71
303 296 260 220 269 326 100 84 20 358 18 251 238 131 213 108 127 129 116 93 74 62 59 55 50 50 49 52 57 65 80 84 88 99 101 107 112 114 112 111 105 98 87 78
268 291 274 220 204 214 186 148 165 204 216 263 346 148 138 104 107 111 107 97 84 70 62 58 53 53 51 54 58 63 76 82 84 89 90 91 95 97 96 92 94 90 87 84
206 259 282 266 231 170 162 186 171 146 155 123 241 151 135 129 120 117 110 100 91 80 70 64 57 53 54 56 57 63 73 78 81 84 86 85 85 90 93 92 89 89 87 86
177 249 289 304 39 16 166 151 106 129 157 207 231 204 197 171 160 138 122 110 98 87 79 71 64 58 58 63 63 66 69 73 74 79 84 87 86 88 89 89 89 87 84 84
152 194 303 349 327 250 112 120 124 132 162 159 201 246 239 185 168 149 132 116 105 94 85 80 75 69 67 67 67 70 72 77 79 82 85 86 86 87 88 87 87 87 84 81
137 132 275 281 273 260 183 174 155 160 200 169 163 245 358 147 141 135 127 118 108 99 90 85 82 77 73 72 72 74 76 78 80 85 86 87 87 87 88 87 85 86 84 80
140 115 16 341 343 356 13 224 164 135 128 157 163 198 84 111 120 123 123 119 111 105 97 90 85 81 79 77 77 78 79 81 82 86 88 88 87 88 88 87 85 83 83 78
120 116 164 209 239 268 307 311 164 138 155 189 189 157 147 133 130 128 125 120 116 110 103 96 90 86 84 82 81 82 81 84 88 88 89 87 86 87 88 86 83 80 80 79
105 129 199 241 257 245 273 321 62 156 186 187 174 155 160 151 140 134 130 127 122 117 111 107 103 98 93 90 88 86 86 87 91 91 90 88 87 86 85 83 81 79 78 79
99 132 120 343 351 213 17 5 23 56 74 108 113 107 131 129 130 135 138 136 131 127 122 118 114 109 104 102 101 97 94 93 94 94 93 93 90 87 86 85 84 81 77 73
120 128 118 287 331 10 341 335 31 65 56 118 147 148 141 140 145 147 145 140 136 132 129 125 122 119 115 111 110 107 104 99 96 96 97 95 93 90 89 93 86 81 77 76
129 112 116 117 32 266 271 2 108 95 52 53 113 137 143 134 124 121 135 138 136 135 132 131 128 122 115 110 108 107 104 100 99 98 97 98 97 94 90 88 85 82 83 81
130 129 120 120 136 296 290 165 139 112 56 90 125 127 120 116 106 101 117 127 131 131 131 128 125 122 119 118 118 111 104 103 103 102 101 101 104 102 96 90 86 85 89 81
76 97 115 128 153 233 254 260 139 104 93 142 138 139 139 134 135 141 134 125 123 122 123 122 120 118 119 122 122 116 113 111 113 114 110 105 106 108 105 101 93 86 98 97
80 69 112 144 189 258 286 158 127 156 227 156 146 145 143 131 131 134 131 124 124 123 124 122 120 120 124 126 123 120 119 123 124 115 108 101 102 111 112 96 83 96 101 97
159 148 160 142 174 252 347 124 170 203 126 131 132 131 118 115 118 126 127 128 128 126 123 122 120 118 118 124 124 124 130 134 121 112 106 95 86 95 101 96 84 85 102 98
147 176 167 171 200 261 335 95 84 128 125 124 127 125 126 125 128 128 128 129 129 128 127 123 122 117 112 122 131 133 141 131 118 109 102 93 86 77 82 95 95 80 83 96
146 128 107 98 23 32 44 58 73 104 116 123 129 130 131 129 132 131 130 129 127 126 128 127 125 124 122 123 125 134 137 130 121 115 109 108 102 87 73 73 86 94 98 103
168 130 110 112 142 91 51 75 102 101 109 115 117 122 131 131 133 133 132 132 130 129 127 129 131 133 135 134 134 141 140 132 124 121 119 112 108 108 93 78 73 95 105 171
181 162 162 193 188 154 148 129 120 117 122 126 122 117 124 131 132 131 131 131 131 132 131 132 133 134 137 139 143 141 139 136 131 126 125 126 128 127 120 111 72 55 83 94
Height
1491 1496 1499 1497 1496 1496 1497 1498 1500 1491 1483 1486 1487 1486 1483 1480 1479 1478 1478 1478 1478 1479 1481 1482 1484 1485 1488 1491 1495 1499 1503 1506 1510 1514 1517 1521 1524 1527 1530 1532 1535 1537 1539 1541
1495 1496 1489 1487 1489 1493 1495 1498 1496 1487 1481 1483 1486 1486 1483 1481 1480 1479 1479 1478 1478 1479 1479 1480 1481 1483 1485 1488 1491 1496 1499 1504 1508 1511 1514 1518 1521 1524 1526 1529 1531 1534 1536 1538
1493 1488 1482 1484 1486 1490 1491 1494 1490 1488 1483 1482 1485 1488 1485 1483 1482 1481 1480 1480 1480 1480 1480 1480 1480 1481 1483 1485 1488 1492 1496 1500 1503 1506 1511 1516 1519 1522 1523 1526 1529 1531 1533 1535
1489 1482 1482 1482 1483 1484 1489 1479 1480 1481 1488 1492 1487 1498 1488 1484 1484 1484 1483 1483 1483 1483 1482 1482 1482 1483 1483 1485 1488 1490 1494 1497 1500 1503 1507 1512 1515 1519 1521 1524 1526 1528 1531 1533
1484 1479 1480 1481 1477 1477 1477 1472 1475 1478 1485 1491 1489 1496 1493 1484 1486 1486 1486 1486 1485 1485 1485 1484 1484 1484 1485 1486 1488 1490 1493 1495 1497 1501 1504 1509 1513 1516 1518 1522 1525 1526 1528 1531
1479 1475 1475 1473 1470 1470 1471 1474 1477 1484 1490 1497 1490 1494 1494 1486 1484 1486 1487 1488 1487 1487 1487 1487 1487 1487 1487 1488 1488 1490 1492 1494 1496 1500 1503 1508 1511 1513 1515 1519 1522 1526 1528 1530
1481 1475 1470 1469 1471 1470 1473 1484 1497 1497 1503 1499 1487 1490 1492 1484 1483 1485 1487 1489 1489 1489 1489 1489 1489 1488 1489 1489 1490 1491 1492 1493 1496 1498 1502 1506 1510 1513 1516 1518 1520 1524 1527 1529
1489 1486 1471 1467 1469 1472 1473 1480 1496 1502 1501 1497 1487 1490 1487 1484 1485 1486 1488 1489 1490 1491 1492 1492 1491 1491 1491 1491 1491 1492 1493 1494 1497 1499 1501 1506 1509 1512 1515 1519 1521 1524 1526 1529
1486 1484 1469 1465 1465 1468 1473 1478 1478 1490 1492 1498 1494 1489 1487 1486 1487 1489 1490 1491 1492 1493 1494 1494 1494 1494 1493 1493 1493 1494 1495 1496 1499 1501 1503 1507 1510 1512 1515 1519 1521 1524 1528 1530
1476 1481 1471 1467 1465 1466 1469 1473 1485 1492 1498 1499 1492 1490 1488 1484 1486 1489 1492 1493 1494 1495 1496 1497 1497 1497 1497 1497 1497 1497 1498 1499 1500 1502 1505 1508 1511 1514 1518 1520 1522 1526 1529 1532
1472 1481 1476 1471 1470 1471 1471 1475 1480 1489 1489 1495 1498 1494 1480 1480 1481 1486 1491 1494 1496 1497 1498 1499 1500 1501 1501 1501 1501 1501 1502 1503 1505 1507 1509 1511 1514 1517 1520 1523 1525 1529 1532 1534
1473 1481 1484 1475 1467 1466 1467 1470 1477 1484 1486 1488 1492 1493 1479 1479 1482 1486 1491 1495 1497 1499 1501 1502 1503 1504 1504 1505 1505 1506 1507 1508 1510 1512 1514 1516 1519 1522 1524 1527 1530 1533 1535 1537
1472 1481 1487 1483 1478 1471 1469 1469 1472 1477 1483 1487 1490 1490 1482 1482 1486 1489 1492 1496 1499 1501 1504 1505 1506 1507 1508 1509 1510 1511 1512 1514 1516 1518 1519 1522 1525 1527 1529 1532 1535 1537 1539 1540
1467 1478 1485 1486 1481 1475 1473 1469 1470 1475 1482 1482 1479 1481 1483 1485 1488 1492 1495 1498 1501 1504 1506 1508 1510 1511 1512 1514 1515 1516 1518 1520 1522 1523 1525 1527 1530 1532 1534 1537 1539 1541 1543 1544
1466 1476 1475 1475 1472 1472 1471 1469 1468 1471 1472 1476 1475 1478 1481 1485 1489 1494 1497 1500 1503 1506 1509 1511 1513 1515 1517 1518 1520 1522 1523 1525 1527 1529 1530 1533 1535 1537 1540 1542 1544 1546 1547 1548
1468 1473 1474 1474 1470 1470 1471 1469 1468 1470 1471 1474 1476 1481 1482 1486 1491 1495 1499 1502 1505 1508 1511 1514 1516 1518 1521 1523 1525 1527 1529 1531 1532 1534 1536 1538 1541 1543 1545 1547 1549 1550 1551 1552
1470 1474 1478 1480 1473 1471 1476 1473 1471 1473 1474 1474 1477 1481 1484 1488 1491 1496 1499 1503 1506 1510 1513 1516 1519 1522 1524 1527 1529 1531 1533 1535 1537 1539 1541 1544 1546 1548 1549 1551 1552 1553 1554 1554
1469 1476 1482 1483 1479 1483 1479 1471 1471 1474 1476 1475 1476 1480 1484 1488 1493 1497 1501 1504 1508 1511 1515 1518 1521 1525 1528 1531 1533 1535 1537 1540 1542 1544 1546 1548 1550 1552 1553 1554 1555 1556 1556 1557
1464 1473 1482 1486 1484 1481 1475 1472 1472 1475 1479 1478 1479 1483 1487 1491 1495 1501 1504 1506 1509 1513 1517 1520 1524 1527 1531 1534 1537 1539 1542 1544 1546 1548 1550 1552 1554 1555 1556 1557 1558 1558 1558 1558
1467 1470 1479 1484 1484 1485 1476 1470 1470 1475 1481 1480 1481 1484 1488 1492 1497 1503 1506 1508 1512 1516 1519 1523 1527 1531 1534 1537 1540 1543 1545 1548 1550 1552 1554 1556 1557 1558 1559 1559 1560 1560 1561 1560
1470 1475 1479 1482 1483 1479 1471 1470 1471 1480 1481 1479 1481 1484 1488 1491 1495 1501 1506 1510 1514 1519 1523 1526 1530 1534 1537 1540 1543 1546 1548 1551 1553 1555 1557 1559 1560 1560 1561 1561 1562 1562 1562 1562
1471 1475 1479 1483 1483 1482 1471 1470 1473 1475 1474 1477 1481 1485 1489 1492 1497 1502 1507 1512 1517 1521 1525 1529 1533 1537 1540 1543 1546 1549 1551 1554 1556 1558 1559 1561 1562 1562 1563 1563 1563 1563 1563 1563
1469 1471 1473 1477 1479 1474 1471 1471 1471 1471 1474 1478 1482 1487 1491 1495 1500 1505 1510 1515 1519 1523 1528 1532 1535 1539 1542 1546 1549 1551 1554 1556 1558 1560 1561 1562 1563 1564 1564 1564 1564 1564 1564 1564
1467 1468 1471 1473 1473 1472 1472 1472 1472 1474 1476 1480 1484 1489 1493 1497 1502 1507 1512 1517 1522 1526 1530 1534 1538 1541 1545 1548 1551 1553 1556 1558 1560 1561 1562 1563 1564 1565 1565 1565 1565 1565 1564 1564
1463 1466 1471 1473 1473 1473 1474 1474 1475 1477 1480 1484 1488 1492 1496 1499 1505 1509 1515 1520 1524 1529 1533 1536 1540 1543 1547 1550 1553 1555 1557 1559 1561 1563 1564 1565 1566 1566 1566 1566 1566 1566 1565 1565
1459 1461 1466 1468 1467 1470 1475 1476 1479 1480 1483 1487 1490 1495 1500 1503 1507 1512 1517 1522 1527 1531 1535 1539 1542 1545 1548 1551 1554 1556 1559 1560 1562 1563 1565 1566 1566 1567 1567 1568 1567 1567 1566 1566